Hourly Data Report for October 31, 2016

All times are specified in Local Standard Time (LST). Add 1 hour to adjust for Daylight Saving Time where and when it is observed.

CLYDE RIVER A
NUNAVUT

70°29'09.000" N
68°31'01.000" W
26.50 m
2400804
71090
YCY

Download Data

Hourly Data (October 2016)
Hourly Data Report for October 31, 2016
Temp Definition
°C
Dew Point Temp Definition
°C
Rel Hum Definition
%
Wind Dir Definition
10's deg

Wind Spd Definition
km/h
Visibility Definition
km
Stn Press Definition
kPa
Hmdx Definition


Wind Chill Definition


Weather Definition


TIME
00:00 Legend Double Dagger -5.1 -5.9 94 31 8 16.1 99.81   -9 LegendNANA
01:00 Legend Double Dagger -7.5 -8.4 93 31 22 16.1 99.75   -15 LegendNANA
02:00 Legend Double Dagger -5.6 -6.5 94 31 24 8.1 99.63   -13 Snow
03:00 Legend Double Dagger -5.1 -6.1 93 29 32 2.4 99.54   -13 Snow
04:00 Legend Double Dagger -5.7 -7.4 88 29 35 16.1 99.46   -14 Snow
05:00 Legend Double Dagger -6.5 -8.2 88 29 32 16.1 99.45   -15 LegendNANA
06:00 Legend Double Dagger -5.0 -7.0 86 30 26 16.1 99.41   -12 LegendNANA
07:00 Legend Double Dagger -4.2 -6.4 85 31 18 16.1 99.35   -10 LegendNANA
08:00 Legend Double Dagger -4.1 -6.3 85 LegendMM 4 16.1 99.34   -6 LegendNANA
09:00 Legend Double Dagger -4.0 -5.7 88 33 17 16.1 99.24   -10 LegendNANA
10:00 Legend Double Dagger -4.2 -5.6 90 32 18 16.1 99.15   -10 LegendNANA
11:00 Legend Double Dagger -3.8 -5.2 90 30 21 16.1 99.06   -10 Snow
12:00 Legend Double Dagger -3.7 -5.0 91 29 22 16.1 98.99   -10 LegendNANA
13:00 Legend Double Dagger -3.9 -5.2 91 29 22 16.1 98.90   -10 LegendNANA
14:00 Legend Double Dagger -5.6 -6.8 91 30 26 16.1 98.84   -13 LegendNANA
15:00 Legend Double Dagger -4.8 -6.4 89 25 18 16.1 98.86   -11 Snow
16:00 Legend Double Dagger -3.7 -7.3 76 25 21 16.1 98.85   -10 Snow
17:00 Legend Double Dagger -4.4 -7.9 77 23 34 16.1 98.92   -13 Snow
18:00 Legend Double Dagger -5.1 -8.1 80 24 28 16.1 98.94   -13 LegendNANA
19:00 Legend Double Dagger -5.9 -9.6 75 19 30 16.1 99.05   -14 LegendNANA
20:00 Legend Double Dagger -5.5 -9.6 73 21 30 16.1 99.08   -14 LegendNANA
21:00 Legend Double Dagger -5.8 -10.4 70 23 22 16.1 99.10   -13 LegendNANA
22:00 Legend Double Dagger -6.2 -10.8 70 22 30 16.1 99.13   -15 LegendNANA
23:00 Legend Double Dagger -5.8 -10.1 72 22 35 16.1 99.12   -15 LegendNANA

Notes on Data Quality.

Legend

  • E = Estimated
  • M = Missing
  • NA = Not Available
  • ‡ = Partner data that is not subject to review by the National Climate Archives
Date modified: